Regional Weather Roundup
Issued by NWS Newport/Morehead, NC

Current Version | Previous Version | Graphics & Text | Print | Product List | Glossary On
Versions: 1 2 3 4 5 6 7 8 9 10 11 12 13 14 15 16 17 18 19 20 21 22 23 24 25 26 27 28 29 30 31 32 33 34 35 36 37 38 39 40 41 42 43 44 45 46 47 48 49 50
000 ASUS42 KMHX 041813 RWRMHX WEATHER ROUNDUP FOR EASTERN NORTH CAROLINA NATIONAL WEATHER SERVICE NEWPORT/MOREHEAD CITY NC 200 PM EDT TUE AUG 04 2015 NOTE: "FAIR" INDICATES FEW OR NO CLOUDS BELOW 12,000 FEET WITH NO SIGNIFICANT WEATHER AND/OR OBSTRUCTIONS TO VISIBILITY NCZ015>017-031-032-045>047-102-103-041900- NORTH COAST CITY SKY/WX TMP DP RH WIND PRES REMARKS EDENTON N/A 80 72 77 SW10 30.01S ELIZABETH CITY PTSUNNY 83 76 79 S13 30.00S KITTY HAWK RAIN 75 70 84 W6 30.01S MANTEO DRIZZLE 76 71 84 W12 30.03S $$ NCZ045>047-081-094-103-104-041900- CENTRAL COAST CITY SKY/WX TMP DP RH WIND PRES REMARKS FRISCO CLOUDY 82 75 79 SW8 30.02F SWANQUARTER N/A 84 N/A N/A SW12G18 29.97S $$ NCZ095-097-098-100-101-041900- SOUTHERN COAST CITY SKY/WX TMP DP RH WIND PRES REMARKS BEAUFORT CLOUDY 83 76 79 S14G23 30.02S CEDAR ISLAND N/A 88 N/A N/A S14G22 30.06S JACKSONVILLE CLOUDY 84 71 65 S17G23 29.99F PINEY ISLAND CLOUDY N/A N/A N/A S14G21 30.01F WILMINGTON CLOUDY 77 71 82 SE8 29.98S $$ NCZ011>013-027>030-043-044-078>080-089-090>093-098-041900- COASTAL PLAIN CITY SKY/WX TMP DP RH WIND PRES REMARKS AHOSKIE SUNNY N/A N/A N/A S14G22 29.98S CLINTON MOSUNNY 88 74 62 S6 29.97F ELIZABETHTOWN PTSUNNY 85 71 63 E9 29.96F GOLDSBORO MOSUNNY 90 74 59 SE13G18 29.95F GREENVILLE PTSUNNY 82 77 83 S5 30.01F HAVELOCK CLOUDY 84 74 71 SW12G18 30.01F KENANSVILLE MOSUNNY N/A N/A N/A S7 29.98F KINSTON PTSUNNY 88 73 62 S17 29.99F NEW BERN PTSUNNY 85 72 65 S14G24 30.01F RICHLANDS PTSUNNY 86 72 62 S14G20 29.99F ROCKY MOUNT PTSUNNY 90 72 55 S15G22 29.97F WASHINGTON PTSUNNY 83 75 77 S6 30.00F WHITEVILLE DRIZZLE 76 74 94 NE6 29.95F $$ AMZ130-135-150-152-154-156-158-170-250-252-270-ANZ085-086-088-633-658-670-041900- MARINE OBSERVATIONS STATION/POSITION TIME TEMP WIND PRES WAVE SWELL AIR SEA DIR/SP/G HT/PER HT/PER (UTC) (F) (DEG/KT/KT) (MB) (FT/S) (FT/S) CHESAPEAKE LIGHT 1800 82 200/ 16/ 17 1015.0 64 E VA BEACH 1750 82 81 210/ 19/ 25 1015.0 5/ 5 2/11 DUCK 1700 84 63 220/ 16/ 21 1015.1 2 E DUCK 1711 69 N/A 2/11 2/11 OREGON INLET 1700 81 81 190/ 21/ 27 1016.5 13E OREGON INLT 1800 81 N/A 3/ 5 2/12 HATTERAS CG 1700 82 79 190/ 5/ 10 1016.6 DIAMOND BUOY 1750 82 84 200/ 17/ 21 1016.5 4/ 6 2/ 7 CAPE LOOKOUT 1800 83 190/ 13/ 15 1016.1 BEAUFORT LAB 1700 82 80 200/ 10/ 12 1016.0 30 SE NEW RVR IN NOT AVBL 27 SE WRIGHTSVLE NOT AVBL 5 SE WRIGHTSVLE 1708 80 81 180/ 17/ 21 1015.1 225 S CAPE HAT 1750 83 81 200/ 12/ 14 1019.1 5/ 6 5/ 6 41 SE CHARLESTON 1750 81 83 250/ 14/ 16 1014.7 6/ 7 5/ 7 $$

USA.gov is the U.S. government's official web portal to all federal, state and local government web resources and services.